This is the latest recevied weather packets stored in our database for station/object DH2PG-6. If no packets are shown the sender has not sent any weather packets the latest 10 day(s).
| Time | Temp. | Humidity | Pressure | Rain* | Wind** | Luminosity | Snow |
|---|---|---|---|---|---|---|---|
| 1788626530 | 18.89° C | 58% | 1021.3 hPa | 0 mm | - | - | - |
| 1788626230 | 18.33° C | 57% | 1021.2 hPa | 16.51 mm | - | - | - |
| 1788625929 | 18.89° C | 57% | 1021.1 hPa | 16.51 mm | - | - | - |
| 1788625629 | 18.89° C | 56% | 1021.2 hPa | 29.97 mm | - | - | - |
| 1788625029 | 18.89° C | 55% | 1020.9 hPa | 123.19 mm | - | - | - |
| 1788624728 | 18.89° C | 55% | 1020.8 hPa | 124.21 mm | - | - | - |
| 1788624428 | 18.89° C | 55% | 1020.8 hPa | 124.21 mm | - | - | - |
| 1788624128 | 18.89° C | 54% | 1021 hPa | 124.21 mm | - | - | - |
| 1788623527 | 19.44° C | 55% | 1020.9 hPa | 124.21 mm | - | - | - |
| 1788623227 | 19.44° C | 56% | 1020.9 hPa | 124.21 mm | - | - | - |
| 1788622927 | 19.44° C | 56% | 1020.8 hPa | 123.7 mm | - | - | - |
| 1788622626 | 19.44° C | 55% | 1020.9 hPa | 107.7 mm | - | - | - |
| 1788622326 | 19.44° C | 55% | 1020.7 hPa | 107.7 mm | - | - | - |
| 1788621725 | 19.44° C | 57% | 1020.8 hPa | 3.05 mm | - | - | - |
| 1788621425 | 19.44° C | 57% | 1020.7 hPa | 0 mm | - | - | - |
| 1788620825 | 19.44° C | 56% | 1020.5 hPa | 0 mm | - | - | - |
| 1788620524 | 19.44° C | 56% | 1020.6 hPa | 0 mm | - | - | - |
| 1788620224 | 19.44° C | 57% | 1020.5 hPa | 0 mm | - | - | - |
| 1788619924 | 19.44° C | 57% | 1020.5 hPa | 0 mm | - | - | - |
| 1788619623 | 19.44° C | 57% | 1020.5 hPa | 0 mm | - | - | - |
| 1788619323 | 19.44° C | 56% | 1020.4 hPa | 0 mm | - | - | - |
| 1788619023 | 19.44° C | 56% | 1020.5 hPa | 0 mm | - | - | - |
| 1788618723 | 19.44° C | 56% | 1020.4 hPa | 0 mm | - | - | - |
| 1788618422 | 19.44° C | 57% | 1020.5 hPa | 0 mm | - | - | - |
| 1788618122 | 19.44° C | 56% | 1020.5 hPa | 0 mm | - | - | - |
* Rain latest hour (hover to see other rain measurements)
** Current wind speed in m/s (hover to see current wind gust speed)